Savoy, IL

12:31 PM CST on January 20, 2017 (GMT -0600)
Univ Of Illinois-Willard

Weather History for KCMI - February, 2013

Change the Weather History Date:

Friday, February 1, 2013

  Actual Average Record
Temperature  
Mean Temperature 13 °F 26 °F  
Max Temperature 21 °F 35 °F 54 °F (2012)
Min Temperature 4 °F 18 °F 4 °F (2013)
Degree Days  
Heating Degree Days 52 39  
Month to date heating degree days 52 39  
Since 1 July heating degree days 3236 3549  
Cooling Degree Days 0 0  
Month to date cooling degree days 0 0  
Year to date cooling degree days 0 0  
Moisture  
Dew Point 3 °F    
Average Humidity 69    
Maximum Humidity 83    
Minimum Humidity 54    
Precipitation  
Precipitation T in 0.06 in 0.89 in (2014)
Month to date precipitation T 0.06  
Year to date precipitation 2.37 2.11  
Sea Level Pressure  
Sea Level Pressure 30.36 in    
Wind  
Wind Speed 15 mph (West)    
Max Wind Speed 29 mph    
Max Gust Speed 33 mph    
Visibility 9 miles    
Events Snow    
T = Trace of Precipitation, MM = Missing Value Source: NWS Daily Summary

Daily Weather History Graph

Daily Weather History Graph

Search for Another Location

Airport or City:

Trip Planner

Search our weather history database for the weather conditions in past years. The results will help you decide how hot, cold, wet, or windy it might be!

Date:

Astronomy

Feb. 01, 2013 Rise Set
Actual Time 7:01 AM CST 5:12 PM CST
Civil Twilight 6:32 AM CST 5:41 PM CST
Nautical Twilight 6:00 AM CST 6:13 PM CST
Astronomical Twilight 5:28 AM CST 6:45 PM CST
Moon 11:19 PM CST (2/1) 9:34 AM CST (2/1)
Length of Visible Light 11h 08m
Length of Day
10h 11m
Waning Gibbous, 70% of the Moon is Illuminated
Feb 1
Waning Gibbous
Feb 3
Last Quarter
Feb 10
New
Feb 17
First Quarter
Feb 25
Full

Hourly Weather History & Observations

Time (CST) Temp. Windchill Dew Point Humidity Pressure Visibility Wind Dir Wind Speed Gust Speed Precip Events Conditions
12:08 AM 6.8 °F -12.9 °F 1.4 °F 79% 30.24 in 3.0 mi WNW 19.6 mph 27.6 mph 0.00 in Snow Light Snow
12:53 AM 7.0 °F -14.0 °F -0.0 °F 73% 30.31 in 6.0 mi West 23.0 mph - 0.00 in Snow Light Snow
1:39 AM 6.8 °F -13.8 °F -0.4 °F 72% 30.29 in 6.0 mi WNW 21.9 mph - 0.00 in Snow Light Snow
1:53 AM 6.1 °F -13.8 °F -0.0 °F 76% 30.34 in 6.0 mi WNW 19.6 mph 29.9 mph 0.00 in Snow Light Snow
2:11 AM 6.8 °F -14.3 °F -0.4 °F 72% 30.30 in 10.0 mi WNW 23.0 mph 29.9 mph 0.00 in   Scattered Clouds
2:53 AM 6.1 °F -14.8 °F -0.0 °F 76% 30.35 in 4.0 mi WNW 21.9 mph 27.6 mph 0.00 in Snow Light Snow
3:53 AM 6.1 °F -14.3 °F -0.9 °F 73% 30.37 in 10.0 mi WNW 20.7 mph - 0.00 in   Mostly Cloudy
4:53 AM 5.0 °F -14.2 °F -0.9 °F 76% 30.38 in 10.0 mi WNW 17.3 mph - 0.00 in   Mostly Cloudy
5:02 AM 5.0 °F -14.2 °F -2.2 °F 72% 30.34 in 10.0 mi WNW 17.3 mph - N/A   Scattered Clouds
5:53 AM 3.9 °F -15.0 °F -2.0 °F 76% 30.40 in 10.0 mi WNW 16.1 mph - N/A   Clear
6:53 AM 3.9 °F -12.2 °F -2.0 °F 76% 30.42 in 10.0 mi West 11.5 mph - N/A   Partly Cloudy
7:53 AM 5.0 °F -13.6 °F -2.0 °F 73% 30.44 in 10.0 mi West 16.1 mph - N/A   Clear
8:37 AM 6.8 °F -9.3 °F -0.4 °F 72% 30.40 in 10.0 mi West 12.7 mph - N/A   Mostly Cloudy
8:48 AM 6.8 °F -9.3 °F -0.4 °F 72% 30.40 in 10.0 mi West 12.7 mph - N/A   Scattered Clouds
8:53 AM 7.0 °F -9.8 °F -0.0 °F 73% 30.46 in 10.0 mi West 13.8 mph - N/A   Scattered Clouds
9:53 AM 10.0 °F -5.9 °F 1.0 °F 67% 30.47 in 10.0 mi West 13.8 mph - N/A   Clear
10:53 AM 12.0 °F -3.4 °F 1.9 °F 64% 30.47 in 10.0 mi West 13.8 mph - N/A   Clear
12:53 PM 17.1 °F 4.3 °F 3.9 °F 56% 30.43 in 10.0 mi WSW 11.5 mph 20.7 mph N/A   Clear
1:53 PM 18.0 °F 4.2 °F 3.9 °F 54% 30.40 in 10.0 mi WSW 13.8 mph - N/A   Clear
2:53 PM 19.0 °F 4.5 °F 6.1 °F 57% 30.39 in 10.0 mi SW 16.1 mph - N/A   Clear
3:53 PM 19.0 °F 6.1 °F 7.0 °F 59% 30.38 in 10.0 mi SW 12.7 mph 21.9 mph N/A   Clear
4:53 PM 18.0 °F 4.8 °F 7.0 °F 62% 30.36 in 10.0 mi WSW 12.7 mph - N/A   Partly Cloudy
5:53 PM 19.9 °F 7.3 °F 7.0 °F 57% 30.36 in 10.0 mi SW 12.7 mph - N/A   Overcast
6:53 PM 19.9 °F 8.6 °F 8.1 °F 60% 30.35 in 10.0 mi SW 10.4 mph - N/A   Overcast
7:53 PM 19.9 °F 7.3 °F 10.0 °F 65% 30.34 in 10.0 mi SSW 12.7 mph - N/A   Overcast
8:53 PM 19.9 °F 7.3 °F 10.9 °F 68% 30.30 in 10.0 mi SSW 12.7 mph - N/A   Overcast
9:53 PM 19.9 °F 7.3 °F 10.9 °F 68% 30.28 in 10.0 mi South 12.7 mph - N/A   Overcast
10:53 PM 19.9 °F 7.3 °F 12.0 °F 71% 30.26 in 10.0 mi South 12.7 mph - N/A   Overcast
11:53 PM 21.0 °F 6.2 °F 14.0 °F 74% 30.24 in 10.0 mi SSW 18.4 mph - N/A   Overcast